Flag for U.S.A. Weather past 2 weeks in Oakland, California, U.S.A.

Now
64 °F

Overcast.


Feels Like: 64 °F
Forecast: 63 / 73 °F
Wind: 7 mph from West

Location: Metro Oakland International Airport

Current Time: Sep 22, 2014 at 4:15:55 AM

Latest Report: Sep 22, 2014 at 2:53 AM


Visibility: 10 mi

Pressure: 30.00 "Hg

Humidity: 81%

Dew point: 58 °F

Location of OaklandLocation

Historic Weather in Oakland — Graph

°F

Oakland temperature yesterday

Maximum temperature yesterday: 69 °F (at 2:53 PM)
Minimum temperature yesterday: 64 °F (at 12:53 AM)
Average temperature yesterday: 66 °F

Past Weeks' High & Low Weather Summary

 TemperatureHumidityPressure
High82 °F (Sep 11, 1:53 PM)93% (Sep 10, 6:53 AM)30.02 "Hg (Sep 10, 6:53 AM)
Low55 °F (Sep 10, 1:53 AM)33% (Sep 11, 1:53 PM)29.75 "Hg (Sep 17, 6:53 PM)
Average66 °F73%29.88 "Hg
* Reported Sep 7 3:00 AM — Sep 22 2:53 AM, Oakland, Weather by CustomWeather, © 2014

Note: Actual official high and low records may vary slightly from our data, if they occured in-between our weather recording intervals... More about our weather records

Advertising

Oakland weather history for previous 24 hours

 ConditionsComfort  
Time TempWeatherWind HumidityBarometerVisibility
2:53 AM
Sep 22
64 °FOvercast.7 mph81%30.00 "Hg10 mi
1:53 AM65 °FOvercast.7 mph78%30.01 "Hg10 mi
12:53 AM65 °FOvercast.8 mph78%30.01 "Hg10 mi
11:53 PM
Sep 21
65 °FOvercast.8 mph78%30.01 "Hg10 mi
10:53 PM65 °FOvercast.10 mph78%30.01 "Hg10 mi
9:53 PM66 °FOvercast.12 mph75%30.02 "Hg10 mi
8:53 PM66 °FOvercast.13 mph73%30.02 "Hg10 mi
7:53 PM66 °FOvercast.12 mph75%30.00 "Hg10 mi
6:53 PM66 °FOvercast.15 mph75%30.00 "Hg10 mi
5:53 PM67 °FOvercast.18 mph73%30.00 "Hg10 mi
4:53 PM67 °FOvercast.17 mph76%29.99 "Hg10 mi
3:53 PM68 °FOvercast.13 mph70%29.99 "Hg10 mi
2:53 PM69 °FOvercast.10 mph68%29.99 "Hg10 mi
1:53 PM68 °FOvercast.13 mph70%30.00 "Hg10 mi
12:53 PM68 °FOvercast.9 mph70%30.01 "Hg10 mi
11:53 AM67 °FOvercast.7 mph73%30.02 "Hg10 mi
10:53 AM66 °FOvercast.8 mph75%30.02 "Hg10 mi
9:53 AM65 °FOvercast.9 mph78%30.01 "Hg10 mi
8:53 AM65 °FOvercast.7 mph78%30.00 "Hg10 mi
7:53 AM64 °FOvercast.8 mph81%29.99 "Hg10 mi
6:53 AM64 °FOvercast.8 mph78%29.97 "Hg10 mi
5:53 AM64 °FOvercast.8 mph78%29.96 "Hg10 mi
4:53 AM64 °FOvercast.9 mph78%29.95 "Hg10 mi
Weather by CustomWeather, © 2014

See weather overviewHow to use our weather pages